User: anonymous   Login
Location: Wien
(48.2082°N, 16.3738°E)
Time: 13:21:19
(UTC+01:00)
Language:

DELFI C3 - Orbit

View from above orbital plane
View from above orbital plane
View from above satellite
View from above satellite

Ground track
Ground track

The orbit data is extracted from the following two-line orbital elements,

1 32789U 08021G   19079.57189420  .00001217  00000-0  85813-4 0  9992
2 32789  97.4757 131.9153 0013789  76.8297 283.4468 15.06727062593390
Epoch (UTC): 20 March 2019 13:43:31
Eccentricity: 0.0013789
inclination: 97.4757°
perigee height: 536 km
apogee height: 556 km
right ascension of ascending node: 131.9153°
argument of perigee: 76.8297°
revolutions per day: 15.06727062
mean anomaly at epoch: 283.4468°
orbit number at epoch: 59339

The dashed part of the orbit path shows where the satellite is in the earth's shadow,  

DLR